Newburgh, NY

9:35 PM EDT on April 29, 2017 (GMT -0400)
Stewart International

Weather History for KSWF - November, 2013

Change the Weather History Date:

Sunday, November 24, 2013

  Actual Average Record
Temperature  
Mean Temperature 24 °F -  
Max Temperature 28 °F 45 °F 69 °F (2014)
Min Temperature 19 °F 29 °F 6 °F (1989)
Degree Days  
Heating Degree Days 42    
Moisture  
Dew Point 3 °F    
Average Humidity 43    
Maximum Humidity 63    
Minimum Humidity 23    
Precipitation  
Precipitation 0.00 in - - ()
Sea Level Pressure  
Sea Level Pressure 30.16 in    
Wind  
Wind Speed 19 mph (WNW)    
Max Wind Speed 28 mph    
Max Gust Speed 41 mph    
Visibility 10 miles    
Events      
Averages and records for this station are not official NWS values.
T = Trace of Precipitation, MM = Missing Value Source: NWS Daily Summary

Daily Weather History Graph

Daily Weather History Graph

Search for Another Location

Airport or City:

Trip Planner

Search our weather history database for the weather conditions in past years. The results will help you decide how hot, cold, wet, or windy it might be!

Date:

Astronomy

Nov. 24, 2013 Rise Set
Actual Time 6:55 AM EST 4:30 PM EST
Civil Twilight 6:25 AM EST 5:00 PM EST
Nautical Twilight 5:51 AM EST 5:34 PM EST
Astronomical Twilight 5:18 AM EST 6:07 PM EST
Moon 10:55 PM EST (11/24) 11:40 AM EST (11/24)
Length of Visible Light 10h 35m
Length of Day
9h 34m
Waning Gibbous, 61% of the Moon is Illuminated
Nov 24
Waning Gibbous
Nov 25
Last Quarter
Dec 2
New
Dec 9
First Quarter
Dec 17
Full

Hourly Weather History & Observations

Time (EST) Temp. Windchill Dew Point Humidity Pressure Visibility Wind Dir Wind Speed Gust Speed Precip Events Conditions
12:15 AM 24.8 °F 11.1 °F 10.4 °F 54% 30.00 in 10.0 mi WNW 18.4 mph 25.3 mph N/A   Overcast
12:35 AM 24.8 °F 11.5 °F 6.8 °F 46% 30.00 in 10.0 mi WNW 17.3 mph 25.3 mph N/A   Overcast
12:55 AM 24.8 °F 8.4 °F 5.0 °F 43% 30.00 in 10.0 mi WNW 27.6 mph 35.7 mph N/A   Mostly Cloudy
1:15 AM 23.0 °F 6.9 °F 1.4 °F 39% 30.00 in 10.0 mi WNW 24.2 mph 41.4 mph N/A   Partly Cloudy
1:35 AM 23.0 °F 6.6 °F 3.2 °F 43% 30.00 in 10.0 mi WNW 25.3 mph 32.2 mph N/A   Mostly Cloudy
1:55 AM 23.0 °F 6.6 °F 1.4 °F 39% 30.00 in 10.0 mi WNW 25.3 mph 33.4 mph N/A   Mostly Cloudy
2:15 AM 23.0 °F 6.3 °F 1.4 °F 39% 30.01 in 10.0 mi NW 26.5 mph 33.4 mph N/A   Mostly Cloudy
2:35 AM 21.2 °F 5.2 °F 5.0 °F 50% 30.01 in 10.0 mi WNW 21.9 mph 32.2 mph N/A   Mostly Cloudy
2:55 AM 23.0 °F 6.6 °F 3.2 °F 43% 30.01 in 10.0 mi WNW 25.3 mph 31.1 mph N/A   Overcast
3:15 AM 21.2 °F 4.2 °F 3.2 °F 46% 30.01 in 10.0 mi NW 25.3 mph 35.7 mph N/A   Mostly Cloudy
3:35 AM 21.2 °F 5.2 °F 5.0 °F 50% 30.01 in 10.0 mi WNW 21.9 mph - N/A   Mostly Cloudy
3:55 AM 21.2 °F 6.4 °F 6.8 °F 54% 30.02 in 10.0 mi WNW 18.4 mph 26.5 mph N/A   Overcast
4:15 AM 21.2 °F 7.8 °F 6.8 °F 54% 30.02 in 10.0 mi WNW 15.0 mph 25.3 mph N/A   Overcast
4:35 AM 21.2 °F 5.6 °F 5.0 °F 50% 30.02 in 10.0 mi WNW 20.7 mph 33.4 mph N/A   Overcast
4:55 AM 21.2 °F 5.2 °F 5.0 °F 50% 30.02 in 10.0 mi WNW 21.9 mph 31.1 mph N/A   Overcast
5:15 AM 21.2 °F 6.0 °F 5.0 °F 50% 30.03 in 10.0 mi WNW 19.6 mph 29.9 mph N/A   Overcast
5:35 AM 19.4 °F 5.5 °F 5.0 °F 54% 30.04 in 10.0 mi WNW 15.0 mph 21.9 mph N/A   Overcast
5:55 AM 21.2 °F 6.8 °F 5.0 °F 50% 30.05 in 10.0 mi NW 17.3 mph 26.5 mph N/A   Overcast
6:15 AM 21.2 °F 7.3 °F 5.0 °F 50% 30.06 in 10.0 mi NW 16.1 mph 25.3 mph N/A   Overcast
6:35 AM 19.4 °F 3.6 °F 6.8 °F 58% 30.06 in 10.0 mi WNW 19.6 mph 27.6 mph N/A   Overcast
6:55 AM 19.4 °F 4.5 °F 6.8 °F 58% 30.07 in 10.0 mi WNW 17.3 mph 25.3 mph N/A   Mostly Cloudy
7:15 AM 19.4 °F 6.6 °F 8.6 °F 63% 30.08 in 10.0 mi WNW 12.7 mph - N/A   Scattered Clouds
7:35 AM 19.4 °F 6.0 °F 5.0 °F 54% 30.09 in 10.0 mi WNW 13.8 mph 25.3 mph N/A   Scattered Clouds
7:55 AM 21.2 °F 6.8 °F 3.2 °F 46% 30.10 in 10.0 mi NW 17.3 mph 31.1 mph N/A   Scattered Clouds
8:15 AM 21.2 °F 9.5 °F 3.2 °F 46% 30.12 in 10.0 mi NW 11.5 mph 17.3 mph N/A   Mostly Cloudy
8:35 AM 21.2 °F 6.4 °F 1.4 °F 42% 30.12 in 10.0 mi NW 18.4 mph 29.9 mph N/A   Overcast
8:55 AM 21.2 °F 5.6 °F 1.4 °F 42% 30.13 in 10.0 mi NW 20.7 mph 32.2 mph N/A   Mostly Cloudy
9:15 AM 23.0 °F 9.6 °F 1.4 °F 39% 30.14 in 10.0 mi NW 16.1 mph 32.2 mph N/A   Overcast
9:35 AM 23.0 °F 6.3 °F 1.4 °F 39% 30.13 in 10.0 mi WNW 26.5 mph 33.4 mph N/A   Mostly Cloudy
9:55 AM 24.8 °F 9.6 °F 1.4 °F 36% 30.15 in 10.0 mi NW 23.0 mph 29.9 mph N/A   Mostly Cloudy
10:15 AM 23.0 °F 10.1 °F 1.4 °F 39% 30.15 in 10.0 mi NW 15.0 mph 32.2 mph N/A   Partly Cloudy
10:35 AM 24.8 °F 11.5 °F 1.4 °F 36% 30.16 in 10.0 mi NW 17.3 mph 31.1 mph N/A   Partly Cloudy
10:55 AM 24.8 °F 9.6 °F -0.4 °F 34% 30.16 in 10.0 mi NW 23.0 mph 36.8 mph N/A   Scattered Clouds
11:15 AM 24.8 °F 11.5 °F -0.4 °F 34% 30.16 in 10.0 mi NNW 17.3 mph 31.1 mph N/A   Scattered Clouds
11:35 AM 26.6 °F 15.2 °F -2.2 °F 29% 30.16 in 10.0 mi NW 13.8 mph 26.5 mph N/A   Scattered Clouds
11:55 AM 26.6 °F 13.1 °F -4.0 °F 26% 30.16 in 10.0 mi NW 19.6 mph 27.6 mph N/A   Scattered Clouds
12:15 PM 26.6 °F 12.4 °F -5.8 °F 24% 30.16 in 10.0 mi NW 21.9 mph 31.1 mph N/A   Clear
12:35 PM 28.4 °F 14.7 °F -5.8 °F 23% 30.16 in 10.0 mi NNW 21.9 mph 32.2 mph N/A   Scattered Clouds
12:55 PM 26.6 °F 11.7 °F -5.8 °F 24% 30.16 in 10.0 mi NW 24.2 mph 33.4 mph N/A   Partly Cloudy
1:15 PM 28.4 °F 16.2 °F -5.8 °F 23% 30.17 in 10.0 mi NW 17.3 mph 29.9 mph N/A   Clear
1:35 PM 28.4 °F 16.6 °F -5.8 °F 23% 30.17 in 10.0 mi NW 16.1 mph 29.9 mph N/A   Scattered Clouds
1:55 PM 28.4 °F 15.4 °F -4.0 °F 25% 30.18 in 10.0 mi NW 19.6 mph 32.2 mph N/A   Scattered Clouds
2:15 PM 28.4 °F 15.8 °F -2.2 °F 27% 30.19 in 10.0 mi NW 18.4 mph 28.8 mph N/A   Mostly Cloudy
2:35 PM 28.4 °F 15.8 °F -2.2 °F 27% 30.19 in 10.0 mi NW 18.4 mph 29.9 mph N/A   Mostly Cloudy
2:55 PM 28.4 °F 15.4 °F -2.2 °F 27% 30.20 in 10.0 mi NW 19.6 mph 32.2 mph N/A   Scattered Clouds
3:15 PM 28.4 °F 16.6 °F -0.4 °F 29% 30.22 in 10.0 mi NW 16.1 mph 25.3 mph N/A   Mostly Cloudy
3:35 PM 26.6 °F 15.2 °F -0.4 °F 31% 30.23 in 10.0 mi NNW 13.8 mph 23.0 mph N/A   Scattered Clouds
3:55 PM 26.6 °F 13.1 °F -2.2 °F 29% 30.23 in 10.0 mi NW 19.6 mph 27.6 mph N/A   Mostly Cloudy
4:15 PM 24.8 °F 12.9 °F -0.4 °F 34% 30.24 in 10.0 mi NW 13.8 mph 32.2 mph N/A   Scattered Clouds
4:35 PM 24.8 °F 11.9 °F 1.4 °F 36% 30.24 in 10.0 mi NW 16.1 mph 24.2 mph N/A   Clear
4:55 PM 24.8 °F 12.4 °F 1.4 °F 36% 30.25 in 10.0 mi NW 15.0 mph - N/A   Mostly Cloudy
5:15 PM 24.8 °F 11.5 °F 3.2 °F 40% 30.26 in 10.0 mi NW 17.3 mph 25.3 mph N/A   Overcast
5:35 PM 23.0 °F 8.3 °F 6.8 °F 50% 30.26 in 10.0 mi West 19.6 mph 28.8 mph N/A   Mostly Cloudy
5:55 PM 23.0 °F 8.3 °F 8.6 °F 54% 30.27 in 10.0 mi WNW 19.6 mph 33.4 mph N/A   Mostly Cloudy
6:15 PM 21.2 °F 7.3 °F 8.6 °F 58% 30.28 in 10.0 mi WNW 16.1 mph - N/A   Partly Cloudy
6:35 PM 21.2 °F 7.3 °F 6.8 °F 54% 30.29 in 10.0 mi WNW 16.1 mph - N/A   Clear
6:55 PM 21.2 °F 6.4 °F 5.0 °F 50% 30.30 in 10.0 mi WNW 18.4 mph - N/A   Clear
7:15 PM 23.0 °F 8.3 °F 3.2 °F 43% 30.30 in 10.0 mi WNW 19.6 mph 29.9 mph N/A   Clear
7:35 PM 21.2 °F 7.3 °F 5.0 °F 50% 30.30 in 10.0 mi WNW 16.1 mph 28.8 mph N/A   Clear
7:55 PM 21.2 °F 8.3 °F 3.2 °F 46% 30.31 in 10.0 mi WNW 13.8 mph 21.9 mph N/A   Clear
8:15 PM 21.2 °F 9.5 °F 3.2 °F 46% 30.31 in 10.0 mi WNW 11.5 mph 18.4 mph N/A   Scattered Clouds
8:35 PM 21.2 °F 8.3 °F 3.2 °F 46% 30.31 in 10.0 mi West 13.8 mph - N/A   Mostly Cloudy
8:55 PM 21.2 °F 8.9 °F 3.2 °F 46% 30.32 in 10.0 mi West 12.7 mph 20.7 mph N/A   Overcast
9:15 PM 21.2 °F 7.3 °F 5.0 °F 50% 30.32 in 10.0 mi WNW 16.1 mph - N/A   Overcast
9:35 PM 21.2 °F 6.4 °F 5.0 °F 50% 30.31 in 10.0 mi WNW 18.4 mph 25.3 mph N/A   Overcast
9:55 PM 21.2 °F 9.5 °F 5.0 °F 50% 30.33 in 10.0 mi WNW 11.5 mph 21.9 mph N/A   Overcast
10:15 PM 21.2 °F 8.3 °F 5.0 °F 50% 30.32 in 10.0 mi West 13.8 mph - N/A   Overcast
10:35 PM 21.2 °F 8.3 °F 5.0 °F 50% 30.32 in 10.0 mi WNW 13.8 mph 21.9 mph N/A   Overcast
10:55 PM 19.4 °F 10.4 °F 5.0 °F 54% 30.33 in 10.0 mi SW 6.9 mph - N/A   Mostly Cloudy
11:15 PM 19.4 °F 6.6 °F 5.0 °F 54% 30.33 in 10.0 mi WNW 12.7 mph - N/A   Overcast
11:35 PM 19.4 °F 7.2 °F 5.0 °F 54% 30.33 in 10.0 mi WNW 11.5 mph - N/A   Overcast
11:55 PM 19.4 °F 7.2 °F 5.0 °F 54% 30.34 in 10.0 mi West 11.5 mph - N/A   Overcast